一网星座-0407星 (ONEWEB-0407 )

导读

ONEWEB-0407是英国(GB)OneWeb低轨卫星互联网星座的组网卫星,于2021年12月27日发射升空。卫星重量约150kg,运行在近地轨道,采用Ku波段为用户提供通信服务,属于OneWeb第一阶段全球宽带网络部署的组成部分,旨在为全球偏远地区、海陆空移动场景提供低时延宽带接入服务,助力全球卫星互联网的覆盖建设。

Basic Information
目录编号:
50487
目录名称:
ONEWEB-0407
国际标识:
2021-132U
轨道中心:
EARTH
卫星名称:
一网星座-0407星
卫星全名:
一网星座-0407星 (ONEWEB-0407 )
卫星状态:
在轨 (已飞行1630 天)
发射日期:
2021-12-27 UTC
国别 :
英国 (GB)
星等 :
--
Orbit Information
数据来源 国际轨道数据 AOE轨道数据
星历时间 2026-06-14T08:08:15+0800
13小时前
查看轨道信息
2026-06-12T06:00:00+0800
2天前
查看轨道信息
半长轴 7567.885km 7567.883km
偏心率 0.0001634 0.0001702
轨道倾角 87.917° 87.917°
近地点辐角 94.859° 90.248°
升交点赤经 336.081° 336.498°
平近点角 265.273° 78.247°
近地点 1188.511km 1188.457km
远地点 1190.985km 1191.035km
周期 109.200分钟 109.200分钟
每日圈数 13.186848 13.186855
Detailed Information
平衡模式:
三轴稳定
覆盖范围:
全球
运营商:
一网卫星公司
运营商所在国:
英国
制造商(研发单位):
一网卫星公司
制造商所在国:
英国
使用方式:
暂无
Satellite Introduction
OneWeb卫星网络由648颗重约125公斤的微型卫星组成,运行在1200公里的轨道上。 每颗卫星都能够提供至少每秒8千兆位的吞吐量,以使用其高吞吐量的Ku频段有效载荷为家庭和移动平台提供互联网接入。该卫星仍在工作。
2D Orbit Map
3D Orbit Map
Orbit Altitude Analysis Chart
Orbit Inclination Analysis Chart
Orbit Comprehensive Analysis Chart
View Comprehensive Chart